Powrót do katalogu

USA 432

AktywnyMilitariaVLEO
NORAD 61655·PAYLOAD·🇺🇸 United States

Wystrzelony Oct 24, 2024 z Vandenberg Space Force Base

Loading…

Następne Przeloty (najbliższe 24 godziny)

TLE

NieaktualneSource: Mike McCants

Epoka: Jul 1, 2026, 21:47 UTC

1 61655U 24192M   26182.90807998 0.00000000  00000-0  00000-0 0    03
2 61655  70.0237 215.1021 0004000 122.2534 237.7466 14.96713421    02

Śledź USA 432 w czasie rzeczywistym z AllMySat

Download on the App Store